Weather History for Palm Springs, CA

Change the Weather History Date:

Friday, June 15, 2012

  Actual Average Record
Temperature  
Mean Temperature 84 °F 86 °F  
Max Temperature 99 °F 102 °F 116 °F (1948)
Min Temperature 69 °F 71 °F 51 °F (1944)
Degree Days  
Heating Degree Days 0 0  
Month to date heating degree days 0 0  
Since 1 June heating degree days 0 0  
Since 1 July heating degree days 771 874  
Cooling Degree Days 19 21  
Month to date cooling degree days 329 294  
Year to date cooling degree days 1268 1053  
Since 1 June cooling degree days 329 294  
Growing Degree Days 34 (Base 50)    
Moisture  
Dew Point 49 °F    
Average Humidity 34    
Maximum Humidity 57    
Minimum Humidity 11    
Precipitation  
Precipitation 0.00 in 0.00 in 0.00 in (2014)
Month to date precipitation 0.00 0.04  
Year to date precipitation 0.79 2.92  
Since 1 July precipitation 2.27 5.72  
Snow  
Snow 0.00 in - - ()
Month to date snowfall 0.0  
Year to date snowfall 0.0  
Since 1 July snowfall 0.0  
Snow Depth 0.00 in    
Sea Level Pressure  
Sea Level Pressure 29.68 in    
Wind  
Wind Speed 4 mph (ENE)    
Max Wind Speed 14 mph    
Max Gust Speed 18 mph    
Visibility 10 miles    
Events      
T = Trace of Precipitation, MM = Missing Value Source: NWS Daily Summary

Daily Weather History Graph

Daily Weather History Graph

Search for Another Location

Airport:

Trip Planner

Search our weather history database for the weather conditions in past years. The results will help you decide how hot, cold, wet, or windy it might be!

Date:

Astronomy

Jun. 15, 2012 Rise Set
Actual Time 5:34 AM PDT 7:58 PM PDT
Civil Twilight 5:05 AM PDT 8:27 PM PDT
Nautical Twilight 4:29 AM PDT 9:03 PM PDT
Astronomical Twilight 3:50 AM PDT 9:42 PM PDT
Moon 2:45 AM PDT (6/15) 4:47 PM PDT (6/15)
Length of Visible Light 15h 21m
Length of Day
14h 23m
Waning Crescent, 13% of the Moon is Illuminated
Jun 15
Waning Crescent
Jun 19
New
Jun 26
First Quarter
Jul 3
Full
Jul 10
Last Quarter

Hourly Weather History & Observations

Time (PDT) Temp. Heat Index Dew Point Humidity Pressure Visibility Wind Dir Wind Speed Gust Speed Precip Events Conditions
12:53 AM 78.1 °F - 51.1 °F 39% 29.65 in 10.0 mi Calm Calm - N/A   Clear
1:53 AM 75.0 °F - 53.1 °F 46% 29.65 in 10.0 mi Calm Calm - N/A   Clear
2:53 AM 73.0 °F - 53.1 °F 49% 29.64 in 10.0 mi ENE 3.5 mph - N/A   Clear
3:53 AM 72.0 °F - 53.1 °F 51% 29.63 in 10.0 mi South 3.5 mph - N/A   Clear
4:53 AM 70.0 °F - 53.1 °F 55% 29.64 in 10.0 mi SSE 4.6 mph - N/A   Clear
5:53 AM 69.1 °F - 52.0 °F 54% 29.67 in 10.0 mi Calm Calm - N/A   Clear
6:53 AM 71.1 °F - 53.1 °F 53% 29.70 in 10.0 mi Calm Calm - N/A   Clear
7:53 AM 73.0 °F - 53.1 °F 49% 29.73 in 10.0 mi Calm Calm - N/A   Clear
8:53 AM 78.1 °F - 53.1 °F 42% 29.75 in 10.0 mi WNW 3.5 mph - N/A   Clear
9:53 AM 84.2 °F - 51.8 °F 33% 29.76 in 10.0 mi NE 3.5 mph - N/A   Clear
10:53 AM 87.1 °F 84.9 °F 53.1 °F 31% 29.75 in 10.0 mi NE 3.5 mph - N/A   Clear
11:53 AM 89.1 °F - 52.0 °F 28% 29.74 in 10.0 mi ENE 6.9 mph - N/A   Clear
12:53 PM 91.9 °F - 48.9 °F 23% 29.72 in 10.0 mi Variable 5.8 mph - N/A   Clear
1:53 PM 93.9 °F - 46.0 °F 19% 29.70 in 10.0 mi Variable 6.9 mph - N/A   Clear
2:53 PM 97.0 °F - 39.0 °F 13% 29.68 in 10.0 mi ESE 11.5 mph - N/A   Clear
3:53 PM 97.0 °F - 35.1 °F 11% 29.66 in 10.0 mi ESE 10.4 mph - N/A   Clear
4:53 PM 98.1 °F - 36.0 °F 11% 29.64 in 10.0 mi ESE 10.4 mph - N/A   Clear
5:53 PM 97.0 °F - 39.9 °F 14% 29.63 in 10.0 mi East 9.2 mph - N/A   Clear
6:53 PM 96.1 °F - 42.1 °F 15% 29.63 in 10.0 mi ESE 8.1 mph - N/A   Clear
7:53 PM 91.9 °F - 50.0 °F 24% 29.65 in 10.0 mi NW 10.4 mph - N/A   Clear
8:53 PM 86.0 °F 84.0 °F 53.1 °F 32% 29.67 in 10.0 mi NW 13.8 mph - N/A   Clear
9:53 PM 82.0 °F 81.3 °F 54.0 °F 38% 29.69 in 10.0 mi NW 12.7 mph - N/A   Clear
10:53 PM 79.0 °F - 54.0 °F 42% 29.69 in 10.0 mi NW 12.7 mph - N/A   Clear
11:53 PM 77.0 °F - 54.0 °F 45% 29.68 in 10.0 mi NW 11.5 mph - N/A   Clear